KMSP

Minneapolis-Saint Paul International Airport

Airport
ICAO code
KMSP
IATA Code
MSP
Summary
ICAO Region
NAM
ICAO Territory
Location

Minneapolis, Minnesota,

Serving
Hennepin County
Elevation
841 ft
Coordinates
44° 52' 58" N , 93° 13' 15" W
KCC
Airport CFIT
Altimeter Temperature Error Correction
Airport GND
Aircraft Ground De/Anti Icing
Airport LOS
Parallel Runway Operation
Airport WX
Fog
Metar
KMSP 040753Z 26003KT 10SM CLR 03/M04 A2982 RMK AO2 SLP101 T00281039

Description

International airport serving Minneapolis St Paul, USA

Climatology

Humid continental climate (Köppen climate classification Dfa) - characterized by four seasons: cold, windy, snowy winters, mild springs, hot, humid summers, and crisp and relatively short autumns. Precipitation reaches its lowest in January and February and peaks in summer and latter half of spring.

Runways

Designator Length Width Surface Rops
17/35 2438 46 CON Yes/Yes
12L/30R 2438 46 PEM Yes/Yes
12R/30L 3048 61 PEM Yes/Yes
4/22 3355 46 CON Yes/Yes

Airport map

Aerial View

SKYbrary Partners:

Safety knowledge contributed by: